When you browse on this site, cookies collect data to enhance your experience and personalize the content and advertising you see.
Visit our Privacy Policy to learn more. By continuing to use the site, you agree to this use of cookies and data.
  • In Hungary
  • List of Countries
  • For 7 days
  • Water Temperature
  • Weather Map
  • News
  • Weather Widgets
  • user-avatar
    Login

    Hourly Weather Glebeni

    Today, 22 September, Sunday

    Time Temperature Precipitation Wind Pressure Humidity
    00:00 +5°C° 0.4 mm 1 mps 736 mmHg 95%
    01:00 +5°C° 0.4 mm 1 mps 735 mmHg 95%
    02:00 +3°C° 0 mm 3 mps 735 mmHg 96%
    03:00 +3°C° 0.5 mm 3 mps 734 mmHg 95%
    04:00 +1°C° 0.5 mm 4 mps 734 mmHg 94%
    05:00 +1°C° 0.5 mm 5 mps 733 mmHg 92%
    06:00 +1°C° 0.1 mm 6 mps 734 mmHg 91%
    07:00 +1°C° 0.1 mm 6 mps 734 mmHg 90%
    08:00 +1°C° 0.1 mm 6 mps 734 mmHg 89%
    09:00 +1°C° 0.5 mm 6 mps 734 mmHg 89%
    10:00 +1°C° 0.5 mm 6 mps 735 mmHg 89%
    11:00 +2°C° 0.5 mm 6 mps 735 mmHg 89%
    12:00 +2°C° 0.2 mm 6 mps 736 mmHg 84%
    13:00 +3°C° 0.2 mm 6 mps 736 mmHg 79%
    14:00 +4°C° 0.2 mm 7 mps 737 mmHg 74%
    15:00 +3°C° 0.1 mm 6 mps 738 mmHg 77%
    16:00 +3°C° 0.1 mm 5 mps 738 mmHg 79%
    17:00 +3°C° 0.1 mm 4 mps 739 mmHg 82%
    18:00 +1°C° 0 mm 4 mps 739 mmHg 85%
    19:00 +1°C° 0 mm 4 mps 740 mmHg 87%
    20:00 0°C° 0 mm 5 mps 740 mmHg 90%
    21:00 0°C° 0 mm 5 mps 740 mmHg 91%
    22:00 0°C° 0 mm 4 mps 741 mmHg 92%
    23:00 -1°C° 0 mm 4 mps 741 mmHg 93%

    Tomorrow, 23 September, Monday

    Time Temperature Precipitation Wind Pressure Humidity
    00:00 0°C° 0 mm 5 mps 741 mmHg 94%
    01:00 0°C° 0 mm 5 mps 742 mmHg 94%
    02:00 0°C° 0 mm 5 mps 742 mmHg 94%
    03:00 0°C° 0 mm 5 mps 742 mmHg 93%
    04:00 -1°C° 0 mm 6 mps 742 mmHg 92%
    05:00 +1°C° 0 mm 6 mps 742 mmHg 91%
    06:00 +1°C° 0.1 mm 6 mps 743 mmHg 89%
    07:00 -1°C° 0.1 mm 6 mps 743 mmHg 86%
    08:00 -1°C° 0.1 mm 6 mps 743 mmHg 83%
    09:00 +1°C° 0 mm 6 mps 743 mmHg 78%
    10:00 +2°C° 0 mm 7 mps 744 mmHg 73%
    11:00 +3°C° 0 mm 7 mps 744 mmHg 67%
    12:00 +4°C° 0 mm 7 mps 744 mmHg 65%
    13:00 +4°C° 0 mm 7 mps 744 mmHg 63%
    14:00 +4°C° 0 mm 7 mps 744 mmHg 60%
    15:00 +4°C° 0.1 mm 6 mps 745 mmHg 65%
    16:00 +3°C° 0.1 mm 5 mps 745 mmHg 70%
    17:00 +3°C° 0.1 mm 4 mps 745 mmHg 74%
    18:00 +1°C° 0 mm 4 mps 745 mmHg 79%
    19:00 +1°C° 0 mm 3 mps 745 mmHg 83%
    20:00 0°C° 0 mm 3 mps 745 mmHg 87%
    21:00 0°C° 0 mm 3 mps 745 mmHg 89%
    22:00 -1°C° 0 mm 3 mps 745 mmHg 90%
    23:00 -1°C° 0 mm 3 mps 745 mmHg 92%

    Day after tomorrow, 24 September, Tuesday

    Time Temperature Precipitation Wind Pressure Humidity
    00:00 -2°C° 0 mm 3 mps 746 mmHg 92%
    01:00 -2°C° 0 mm 3 mps 746 mmHg 93%
    02:00 -2°C° 0 mm 3 mps 746 mmHg 93%
    03:00 -2°C° 0 mm 3 mps 746 mmHg 93%
    04:00 -2°C° 0 mm 3 mps 746 mmHg 93%
    05:00 -4°C° 0 mm 3 mps 746 mmHg 93%
    06:00 -1°C° 0 mm 3 mps 746 mmHg 88%
    07:00 0°C° 0 mm 3 mps 746 mmHg 83%
    08:00 0°C° 0 mm 4 mps 746 mmHg 77%
    09:00 +1°C° 0 mm 4 mps 746 mmHg 72%
    10:00 +3°C° 0 mm 4 mps 746 mmHg 67%
    11:00 +4°C° 0 mm 4 mps 746 mmHg 62%
    12:00 +4°C° 0 mm 4 mps 746 mmHg 62%
    13:00 +4°C° 0 mm 4 mps 746 mmHg 62%
    14:00 +4°C° 0 mm 3 mps 746 mmHg 62%
    15:00 +3°C° 0 mm 3 mps 746 mmHg 65%
    16:00 +3°C° 0 mm 3 mps 746 mmHg 68%
    17:00 +4°C° 0 mm 2 mps 746 mmHg 71%
    18:00 +3°C° 0 mm 2 mps 746 mmHg 75%
    19:00 +2°C° 0 mm 2 mps 746 mmHg 79%
    20:00 +1°C° 0 mm 2 mps 746 mmHg 83%
    21:00 +1°C° 0 mm 2 mps 746 mmHg 85%
    22:00 -1°C° 0 mm 2 mps 746 mmHg 88%
    23:00 -1°C° 0 mm 2 mps 747 mmHg 91%

    25 September, Wednesday

    Time Temperature Precipitation Wind Pressure Humidity
    00:00 -1°C° 0 mm 2 mps 747 mmHg 92%
    01:00 -1°C° 0 mm 2 mps 747 mmHg 94%
    02:00 -1°C° 0 mm 2 mps 747 mmHg 95%
    03:00 -2°C° 0 mm 2 mps 747 mmHg 95%
    04:00 -2°C° 0 mm 2 mps 747 mmHg 95%
    05:00 -2°C° 0 mm 2 mps 747 mmHg 95%
    06:00 -1°C° 0 mm 2 mps 747 mmHg 89%
    07:00 +1°C° 0 mm 2 mps 747 mmHg 84%
    08:00 +1°C° 0 mm 3 mps 747 mmHg 78%
    09:00 +2°C° 0 mm 3 mps 747 mmHg 73%
    10:00 +4°C° 0 mm 3 mps 747 mmHg 67%
    11:00 +5°C° 0 mm 3 mps 748 mmHg 62%
    12:00 +5°C° 0 mm 3 mps 748 mmHg 61%
    13:00 +5°C° 0 mm 3 mps 748 mmHg 59%
    14:00 +7°C° 0 mm 3 mps 747 mmHg 58%
    15:00 +5°C° 0 mm 3 mps 747 mmHg 64%
    16:00 +5°C° 0 mm 2 mps 747 mmHg 70%
    17:00 +4°C° 0 mm 2 mps 747 mmHg 76%
    18:00 +4°C° 0 mm 1 mps 747 mmHg 80%
    19:00 +3°C° 0 mm 1 mps 748 mmHg 84%
    20:00 +2°C° 0 mm 1 mps 748 mmHg 89%
    21:00 +2°C° 0 mm 1 mps 748 mmHg 90%
    22:00 +1°C° 0 mm 1 mps 748 mmHg 91%
    23:00 +1°C° 0 mm 1 mps 748 mmHg 92%

    26 September, Thursday

    Time Temperature Precipitation Wind Pressure Humidity
    00:00 +1°C° 0 mm 1 mps 748 mmHg 92%
    01:00 +1°C° 0 mm 1 mps 748 mmHg 93%
    02:00 +1°C° 0 mm 1 mps 748 mmHg 93%
    03:00 -1°C° 0 mm 2 mps 748 mmHg 93%
    04:00 -1°C° 0 mm 2 mps 748 mmHg 93%
    05:00 -1°C° 0 mm 2 mps 748 mmHg 93%
    06:00 +1°C° 0 mm 2 mps 748 mmHg 88%
    07:00 +3°C° 0 mm 2 mps 748 mmHg 83%
    08:00 +4°C° 0 mm 2 mps 748 mmHg 79%
    09:00 +5°C° 0 mm 2 mps 748 mmHg 72%
    10:00 +7°C° 0 mm 2 mps 748 mmHg 65%
    11:00 +8°C° 0 mm 3 mps 748 mmHg 59%
    12:00 +8°C° 0 mm 3 mps 747 mmHg 59%
    13:00 +8°C° 0 mm 2 mps 747 mmHg 59%
    14:00 +8°C° 0 mm 2 mps 747 mmHg 59%
    15:00 +7°C° 0 mm 2 mps 747 mmHg 63%
    16:00 +7°C° 0 mm 1 mps 746 mmHg 68%
    17:00 +6°C° 0 mm 0 mps 746 mmHg 72%
    18:00 +5°C° 0 mm 0 mps 746 mmHg 73%
    19:00 +5°C° 0 mm 0 mps 746 mmHg 75%
    20:00 +4°C° 0 mm 0 mps 746 mmHg 76%
    21:00 +4°C° 0 mm 0 mps 745 mmHg 76%
    22:00 +4°C° 0 mm 0 mps 745 mmHg 76%
    23:00 +4°C° 0 mm 0 mps 745 mmHg 76%

    27 September, Friday

    Time Temperature Precipitation Wind Pressure Humidity
    00:00 +4°C° 0 mm 0 mps 745 mmHg 77%
    01:00 +5°C° 0 mm 1 mps 745 mmHg 79%
    02:00 +5°C° 0 mm 1 mps 745 mmHg 80%
    03:00 +4°C° 0 mm 1 mps 744 mmHg 83%
    04:00 +3°C° 0 mm 2 mps 744 mmHg 87%
    05:00 +3°C° 0 mm 2 mps 744 mmHg 91%
    06:00 +3°C° 0 mm 2 mps 744 mmHg 89%
    07:00 +4°C° 0 mm 2 mps 744 mmHg 87%
    08:00 +4°C° 0 mm 2 mps 744 mmHg 85%
    09:00 +4°C° 0 mm 3 mps 745 mmHg 82%
    10:00 +4°C° 0 mm 3 mps 745 mmHg 79%
    11:00 +4°C° 0 mm 3 mps 745 mmHg 76%
    12:00 +5°C° 0 mm 3 mps 746 mmHg 74%
    13:00 +5°C° 0 mm 3 mps 746 mmHg 72%
    14:00 +5°C° 0 mm 3 mps 746 mmHg 69%
    15:00 +4°C° 0 mm 3 mps 746 mmHg 73%
    16:00 +4°C° 0 mm 3 mps 747 mmHg 77%
    17:00 +4°C° 0 mm 2 mps 747 mmHg 82%
    18:00 +3°C° 0 mm 2 mps 747 mmHg 84%
    19:00 +3°C° 0 mm 2 mps 748 mmHg 86%
    20:00 +2°C° 0 mm 2 mps 748 mmHg 89%
    21:00 +2°C° 0 mm 2 mps 749 mmHg 87%
    22:00 +2°C° 0 mm 2 mps 749 mmHg 85%
    23:00 +2°C° 0 mm 2 mps 749 mmHg 84%
    Show more